Mullan Pass, ID

4:08 AM PDT on June 29, 2017 (GMT -0700)
Mullan Pass

Weather History for KMLP - February, 2013

Change the Weather History Date:

Thursday, February 28, 2013

  Actual Average (K3TH) Record (K3TH)
Temperature  
Mean Temperature 26 °F -  
Max Temperature 30 °F 39 °F 46 °F (1999)
Min Temperature 23 °F 25 °F 12 °F (2001)
Degree Days  
Heating Degree Days 38    
Moisture  
Dew Point 25 °F    
Average Humidity 93    
Maximum Humidity 100    
Minimum Humidity 86    
Precipitation  
Precipitation 0.07 in - - ()
Sea Level Pressure  
Sea Level Pressure 30.21 in    
Wind  
Wind Speed 4 mph (SW)    
Max Wind Speed 9 mph    
Max Gust Speed -    
Visibility 1 miles    
Events Fog , Snow    
Averages and records for this station are not official NWS values.
T = Trace of Precipitation, MM = Missing Value Source: NWS Daily Summary

Daily Weather History Graph

Daily Weather History Graph

Search for Another Location

Airport or City:

Trip Planner

Search our weather history database for the weather conditions in past years. The results will help you decide how hot, cold, wet, or windy it might be!

Date:

Astronomy

Feb. 28, 2013 Rise Set
Actual Time 6:24 AM PST 5:26 PM PST
Civil Twilight 5:53 AM PST 5:57 PM PST
Nautical Twilight 5:18 AM PST 6:33 PM PST
Astronomical Twilight 4:42 AM PST 7:08 PM PST
Moon 9:17 PM PST (2/28) 7:20 AM PST (2/28)
Length of Visible Light 12h 04m
Length of Day
11h 02m
Waning Gibbous, 90% of the Moon is Illuminated
Feb 28
Waning Gibbous
Mar 4
Last Quarter
Mar 11
New
Mar 19
First Quarter
Mar 27
Full

Hourly Weather History & Observations

Time (PST) Temp. Windchill Dew Point Humidity Pressure Visibility Wind Dir Wind Speed Gust Speed Precip Events Conditions
12:06 AM 24.8 °F 20.5 °F 23.0 °F 93% 30.13 in 5.0 mi SSW 3.5 mph - 0.00 in Snow Light Snow
12:16 AM 24.8 °F 19.1 °F 23.0 °F 93% 30.13 in 2.5 mi Variable 4.6 mph - 0.00 in Snow Light Snow
12:21 AM 23.0 °F 15.8 °F 21.2 °F 93% 30.13 in 1.8 mi Variable 5.8 mph - 0.00 in Snow Light Snow
12:25 AM 23.0 °F 13.9 °F 23.0 °F 100% 30.13 in 2.0 mi SSW 8.1 mph - 0.00 in Snow Light Snow
12:31 AM 23.0 °F 15.8 °F 21.2 °F 93% 30.13 in 3.0 mi South 5.8 mph - 0.00 in   Overcast
12:40 AM 23.0 °F 15.8 °F 23.0 °F 100% 30.13 in 1.5 mi South 5.8 mph - 0.00 in Snow Light Snow
12:43 AM 23.0 °F 18.4 °F 21.2 °F 93% 30.13 in 0.8 mi Variable 3.5 mph - 0.00 in Snow Light Snow
12:53 AM 23.0 °F 17.0 °F 23.0 °F 100% 30.27 in 0.5 mi Variable 4.6 mph - 0.00 in Fog , Snow Light Snow
1:04 AM 23.0 °F 15.8 °F 23.0 °F 100% 30.13 in 0.5 mi SW 5.8 mph - 0.00 in Fog , Snow Light Snow
1:12 AM 23.0 °F 18.4 °F 23.0 °F 100% 30.13 in 1.2 mi Variable 3.5 mph - 0.00 in   Overcast
1:16 AM 23.0 °F 18.4 °F 23.0 °F 100% 30.14 in 2.0 mi Variable 3.5 mph - 0.00 in   Overcast
1:24 AM 23.0 °F 15.8 °F 21.2 °F 93% 30.13 in 9.0 mi SW 5.8 mph - 0.00 in   Overcast
1:53 AM 23.0 °F 14.7 °F 21.9 °F 96% 30.28 in 4.0 mi WSW 6.9 mph - 0.00 in   Overcast
2:02 AM 23.0 °F 13.9 °F 21.2 °F 93% 30.13 in 1.8 mi SW 8.1 mph - N/A   Overcast
2:08 AM 23.0 °F 15.8 °F 21.2 °F 93% 30.13 in 0.8 mi SW 5.8 mph - N/A   Mist
2:28 AM 24.8 °F 17.9 °F 23.0 °F 93% 30.12 in 0.8 mi Variable 5.8 mph - 0.00 in Snow Light Snow
2:53 AM 24.1 °F 17.0 °F 23.0 °F 96% 30.25 in 0.5 mi Variable 5.8 mph - 0.00 in Fog , Snow Light Snow
3:17 AM 24.8 °F 20.5 °F 21.2 °F 86% 30.12 in 0.2 mi Variable 3.5 mph - 0.00 in Fog , Snow Light Snow
3:32 AM 24.8 °F 20.5 °F 23.0 °F 93% 30.12 in 0.5 mi Variable 3.5 mph - 0.00 in Fog , Snow Light Snow
3:53 AM 25.0 °F 17.1 °F 23.0 °F 92% 30.26 in 0.2 mi Variable 6.9 mph - 0.01 in Fog , Snow Light Snow
4:00 AM 24.8 °F 17.9 °F 23.0 °F 93% 30.13 in 0.2 mi Variable 5.8 mph - 0.00 in Fog , Snow Light Snow
4:47 AM 26.6 °F 21.2 °F 23.0 °F 86% 30.14 in 0.5 mi Variable 4.6 mph - 0.01 in Fog , Snow Light Snow
4:48 AM 26.1 °F 21.9 °F 23.0 °F 88% 30.27 in 0.8 mi Variable 3.5 mph - 0.01 in Snow Light Snow
4:57 AM 26.6 °F 22.6 °F 23.0 °F 86% 30.14 in 1.2 mi Variable 3.5 mph - 0.00 in Snow Light Snow
5:07 AM 26.6 °F 21.2 °F 23.0 °F 86% 30.14 in 1.8 mi Variable 4.6 mph - 0.00 in Snow Light Snow
5:14 AM 26.6 °F 21.2 °F 23.0 °F 86% 30.14 in 2.5 mi WSW 4.6 mph - 0.01 in Snow Light Snow
5:21 AM 26.6 °F 20.0 °F 23.0 °F 86% 30.14 in 1.2 mi Variable 5.8 mph - 0.01 in Snow Light Snow
5:40 AM 24.8 °F - 23.0 °F 93% 30.15 in 0.8 mi Calm Calm - 0.02 in Snow Light Snow
5:49 AM 24.8 °F 20.5 °F 23.0 °F 93% 30.14 in 1.0 mi Variable 3.5 mph - 0.03 in Snow Light Snow
6:19 AM 24.8 °F 17.9 °F 23.0 °F 93% 30.16 in 1.5 mi SW 5.8 mph - 0.01 in Snow Light Snow
6:23 AM 24.8 °F 19.1 °F 23.0 °F 93% 30.16 in 1.2 mi SW 4.6 mph - 0.01 in Snow Light Snow
6:32 AM 24.8 °F 19.1 °F 23.0 °F 93% 30.15 in 1.5 mi SW 4.6 mph - 0.01 in Snow Light Snow
6:40 AM 24.8 °F 19.1 °F 23.0 °F 93% 30.16 in 1.2 mi SSW 4.6 mph - 0.01 in Snow Light Snow
6:48 AM 24.8 °F 19.1 °F 23.0 °F 93% 30.16 in 0.2 mi South 4.6 mph - 0.02 in Fog , Snow Light Snow
7:17 AM 24.8 °F 20.5 °F 23.0 °F 93% 30.16 in 0.8 mi SSW 3.5 mph - 0.00 in Snow Light Snow
7:19 AM 24.8 °F 19.1 °F 23.0 °F 93% 30.16 in 1.0 mi SSW 4.6 mph - 0.00 in Snow Light Snow
7:39 AM 24.8 °F 17.9 °F 23.0 °F 93% 30.18 in 0.8 mi SSW 5.8 mph - 0.00 in Snow Light Snow
7:53 AM 25.0 °F 19.3 °F 23.0 °F 92% 30.31 in 1.0 mi SW 4.6 mph - 0.01 in Snow Light Snow
8:05 AM 24.8 °F 20.5 °F 23.0 °F 93% 30.18 in 1.8 mi Variable 3.5 mph - 0.00 in Snow Light Snow
8:10 AM 26.6 °F 22.6 °F 24.8 °F 93% 30.18 in 0.8 mi Variable 3.5 mph - 0.00 in Snow Light Snow
8:27 AM 26.6 °F - 23.0 °F 86% 30.18 in 1.0 mi Calm Calm - 0.00 in Snow Light Snow
8:36 AM 26.6 °F - 23.0 °F 86% 30.19 in 1.5 mi Calm Calm - 0.00 in Snow Light Snow
8:42 AM 26.6 °F - 23.0 °F 86% 30.19 in 0.8 mi Calm Calm - 0.00 in Snow Light Snow
8:50 AM 26.6 °F - 23.0 °F 86% 30.19 in 0.2 mi Calm Calm - 0.00 in Fog Light Freezing Fog
8:53 AM 26.1 °F - 23.0 °F 88% 30.32 in 0.2 mi Calm Calm - 0.00 in Fog Light Freezing Fog
8:58 AM 26.6 °F - 24.8 °F 93% 30.19 in 0.8 mi Calm Calm - N/A   Overcast
9:00 AM 26.6 °F - 24.8 °F 93% 30.19 in 1.8 mi Calm Calm - N/A   Overcast
9:07 AM 26.6 °F 22.6 °F 24.8 °F 93% 30.19 in 6.0 mi Variable 3.5 mph - N/A   Overcast
9:53 AM 27.0 °F 20.5 °F 24.1 °F 89% 30.32 in 0.2 mi South 5.8 mph - N/A Fog Light Freezing Fog
10:20 AM 28.4 °F 24.6 °F 26.6 °F 93% 30.21 in 2.0 mi SW 3.5 mph - N/A   Overcast
10:27 AM 28.4 °F - 26.6 °F 93% 30.20 in 10.0 mi Calm Calm - N/A   Overcast
10:45 AM 28.4 °F - 26.6 °F 93% 30.22 in 1.5 mi Calm Calm - N/A   Overcast
10:51 AM 28.4 °F - 26.6 °F 93% 30.22 in 0.8 mi Calm Calm - N/A   Overcast
10:52 AM 28.0 °F - 26.1 °F 92% 30.35 in 0.8 mi Calm Calm - N/A   Overcast
11:31 AM 28.4 °F - 26.6 °F 93% 30.22 in 0.2 mi Calm Calm - N/A Fog Light Freezing Fog
11:53 AM 28.9 °F 25.2 °F 27.0 °F 92% 30.32 in 0.2 mi Variable 3.5 mph - N/A Fog Light Freezing Fog
12:53 PM 28.0 °F 24.2 °F 26.1 °F 92% 30.32 in 0.5 mi Variable 3.5 mph - N/A Fog Light Freezing Fog
1:05 PM 28.4 °F 24.6 °F 26.6 °F 93% 30.20 in - Variable 3.5 mph - N/A   Overcast
1:18 PM 28.4 °F 23.3 °F 26.6 °F 93% 30.20 in 0.5 mi Variable 4.6 mph - N/A Fog Light Freezing Fog
1:50 PM 28.4 °F 23.3 °F 26.6 °F 93% 30.19 in 2.5 mi Variable 4.6 mph - N/A   Overcast
1:53 PM 28.9 °F 25.2 °F 26.1 °F 89% 30.32 in 4.0 mi Variable 3.5 mph - N/A   Overcast
1:58 PM 28.4 °F 22.2 °F 26.6 °F 93% 30.20 in 1.8 mi South 5.8 mph - N/A   Overcast
2:20 PM 28.4 °F 23.3 °F 26.6 °F 93% 30.20 in 0.2 mi Variable 4.6 mph - N/A Fog Light Freezing Fog
2:53 PM 28.0 °F - 27.0 °F 96% 30.35 in 0.2 mi Calm Calm - N/A Fog Light Freezing Fog
3:53 PM 28.9 °F 25.2 °F 27.0 °F 92% 30.33 in 0.2 mi Variable 3.5 mph - 0.01 in Fog , Snow Snow
4:17 PM 28.4 °F - 26.6 °F 93% 30.22 in 0.5 mi Calm Calm - 0.01 in Fog , Snow Light Snow
4:43 PM 28.4 °F 24.6 °F 26.6 °F 93% 30.22 in 0.2 mi Variable 3.5 mph - 0.02 in Fog , Snow Light Snow
4:53 PM 28.0 °F 20.8 °F 26.1 °F 92% 30.32 in 0.2 mi South 6.9 mph - 0.02 in Fog , Snow Light Snow
5:37 PM 28.4 °F 22.2 °F 26.6 °F 93% 30.21 in 0.5 mi South 5.8 mph - 0.01 in Fog , Snow Light Snow
5:53 PM 28.0 °F 21.7 °F 26.1 °F 92% 30.34 in 0.8 mi Variable 5.8 mph - 0.01 in Snow Light Snow
6:11 PM 28.4 °F 22.2 °F 26.6 °F 93% 30.22 in 1.0 mi Variable 5.8 mph - 0.00 in Snow Light Snow
6:22 PM 28.4 °F 22.2 °F 26.6 °F 93% 30.22 in 1.8 mi Variable 5.8 mph - 0.00 in Snow Light Snow
6:28 PM 28.4 °F 21.2 °F 26.6 °F 93% 30.22 in 0.8 mi South 6.9 mph - 0.00 in Snow Light Snow
6:53 PM 28.0 °F 21.7 °F 26.1 °F 92% 30.34 in 0.8 mi SSW 5.8 mph - 0.00 in Snow Light Snow
7:17 PM 28.4 °F 21.2 °F 26.6 °F 93% 30.23 in 1.5 mi SW 6.9 mph - 0.00 in Snow Light Snow
7:21 PM 28.4 °F 21.2 °F 26.6 °F 93% 30.23 in 2.0 mi SW 6.9 mph - 0.00 in Snow Light Snow
7:28 PM 28.4 °F 22.2 °F 26.6 °F 93% 30.23 in 2.0 mi Variable 5.8 mph - 0.00 in Snow Light Snow
7:35 PM 28.4 °F 23.3 °F 26.6 °F 93% 30.23 in 1.5 mi SW 4.6 mph - 0.00 in Snow Light Snow
7:41 PM 28.4 °F 22.2 °F 26.6 °F 93% 30.22 in 0.8 mi SW 5.8 mph - 0.00 in Snow Light Snow
8:01 PM 28.4 °F 23.3 °F 26.6 °F 93% 30.23 in 1.2 mi Variable 4.6 mph - 0.00 in Snow Light Snow
8:17 PM 28.4 °F 22.2 °F 26.6 °F 93% 30.22 in 0.8 mi SSW 5.8 mph - 0.00 in Snow Light Snow
8:53 PM 28.0 °F 20.8 °F 26.1 °F 92% 30.36 in 0.2 mi Variable 6.9 mph - 0.00 in Fog Light Freezing Fog
9:53 PM 30.0 °F 23.2 °F 28.0 °F 92% 30.35 in 0.2 mi Variable 6.9 mph - N/A Fog Light Freezing Fog
10:25 PM 30.2 °F 25.4 °F 28.4 °F 93% 30.27 in 0.2 mi Variable 4.6 mph - N/A Fog Light Freezing Fog
10:46 PM 30.2 °F 25.4 °F 28.4 °F 93% 30.27 in 0.2 mi WSW 4.6 mph - N/A Fog Light Freezing Fog
10:53 PM 30.0 °F 21.7 °F 28.9 °F 96% 30.36 in 0.2 mi WSW 9.2 mph - N/A Fog Light Freezing Fog
11:27 PM 30.2 °F 22.6 °F 28.4 °F 93% 30.26 in 0.2 mi WSW 8.1 mph - N/A Fog Light Freezing Fog
11:39 PM 30.2 °F 23.4 °F 28.4 °F 93% 30.27 in 0.2 mi WSW 6.9 mph - N/A Fog Light Freezing Fog
11:53 PM 30.9 °F 23.5 °F 30.0 °F 96% 30.22 in 0.2 mi WSW 8.1 mph - N/A Fog Light Freezing Fog